Skip Page Navigation
NASA JPL Caltech
NASA Logo - Jet Propulsion Laboratory + View the NASA Portal
+ Center for Near-Earth Object Studies
JPL Home Earth Solar System Stars & Galaxies Technology
JPL Solar System Dynamics
BODIES ORBITS EPHEMERIDES TOOLS PHYSICAL DATA DISCOVERY FAQ SITE MAP
JPL Small-Body Database Browser
Search: [ help ]  
135324 (2001 SZ313)
Classification: Main-belt Asteroid          SPK-ID: 2135324
Ephemeris | Orbit Diagram | Orbital Elements | Mission Design | Physical Parameters | Discovery Circumstances | Close-Approach Data ]

[ show orbit diagram ]
Orbital Elements at Epoch 2459200.5 (2020-Dec-17.0) TDB
Reference: JPL 22 (heliocentric ecliptic J2000)
 Element Value Uncertainty (1-sigma)   Units 
e .204943514149749 3.8792e-08  
a 3.042459885446922 2.2444e-08 au
q 2.418927464863787 1.2383e-07 au
i 9.955256357092606 3.8921e-06 deg
node 109.0318338245481 3.4183e-05 deg
peri 215.5185347627121 3.6498e-05 deg
M 251.0753284125072 1.4069e-05 deg
tp 2459786.988467207039
(2022-Jul-26.48846721)
7.7897e-05 TDB
period 1938.36570831376
5.31
2.1449e-05
5.872e-08
d
yr
n .1857234671744035 2.0551e-09 deg/d
Q 3.665992306030057 2.7044e-08 au
  Orbit Determination Parameters
   # obs. used (total)      501  
   data-arc span      7644 days (20.93 yr)  
   first obs. used      2000-05-27  
   last obs. used      2021-05-01  
   planetary ephem.      DE441  
   SB-pert. ephem.      SB441-N16  
   condition code      0  
   norm. resid. RMS      .59085  
   source      ORB  
   producer      Otto Matic  
   solution date      2021-May-04 09:21:06  

Additional Information
 Earth MOID = 1.41234 au 
 Jupiter MOID = 1.68664 au 
 T_jup = 3.185 
[ show covariance matrix ]

Ephemeris | Orbit Diagram | Orbital Elements | Mission Design | Physical Parameters | Discovery Circumstances | Close-Approach Data ]

Physical Parameter Table
Parameter Symbol Value Units Sigma Reference Notes
absolute magnitude H 15.15   n/a E2021B55  

135324 (2001 SZ313)          Discovered 2001-Sep-21 by LINEAR at Socorro
Reference: 20060907/Numbers.arcLast Updated: 2006-09-10

[ show close-approach data ]
Ephemeris | Orbit Diagram | Orbital Elements | Mission Design | Physical Parameters | Discovery Circumstances | Close-Approach Data ]
ABOUT SSD CREDITS/AWARDS PRIVACY/COPYRIGHT GLOSSARY LINKS
FirstGov 2021-May-15 00:35 UT
(server date/time)  
NASA Home Page
Site Manager:   Ryan S. Park
Webmaster  Alan B. Chamberlin